Regional Weather Roundup
Issued by NWS

Home | Current Version | Previous Version | Text Only | Print | Product List | Glossary Off
Versions: 1 2 3 4 5 6 7 8 9 10 11 12 13 14 15 16 17 18 19 20 21 22 23 24 25 26 27 28 29 30 31 32 33 34 35 36 37 38 39 40 41 42 43 44 45 46 47 48 49 50

000
ASUS43 KBIS 201210
RWRND

NORTH DAKOTA REGIONAL WEATHER ROUNDUP
NATIONAL WEATHER SERVICE BISMARCK ND
700 AM CDT FRI APR 20 2018

NOTE: "FAIR" INDICATES FEW OR NO CLOUDS BELOW 12,000 FEET WITH NO
SIGNIFICANT WEATHER AND/OR OBSTRUCTIONS TO VISIBILITY.


NDZ001>003-009>011-017-201300-
NORTHWEST NORTH DAKOTA

CITY           SKY/WX    TMP DP  RH WIND       PRES   REMARKS
WILLISTON      MOCLDY    33  30  88 NE7       30.23S
6HR MIN TEMP:  30; 6HR MAX TEMP:  39;

MINOT          MOCLDY    32  29  88 CALM      30.29S
MINOT AFB      CLEAR     29  29  99 SE6       30.28S
$$

NDZ018>021-031>035-040>046-201300-
SOUTHWEST NORTH DAKOTA

CITY           SKY/WX    TMP DP  RH WIND       PRES   REMARKS
BISMARCK       CLEAR     32  21  64 CALM      30.32S
6HR MIN TEMP:  28; 6HR MAX TEMP:  38;

DICKINSON      PTCLDY    31  26  82 SE12      30.19F
GARRISON         N/A     30  26  85 E8        30.28F
6HR MIN TEMP:  29; 6HR MAX TEMP:  35;

HETTINGER ARPT CLOUDY    31  25  78 SE10      30.21S
$$

NDZ004>008-012>016-024-026-027-054-201300-
NORTHEAST NORTH DAKOTA

CITY           SKY/WX    TMP DP  RH WIND       PRES   REMARKS
GRAND FORKS    CLOUDY    32  30  92 SE7       30.39R
GRND FRKS AFB  FAIR      34  29  84 CALM      30.38S
DEVILS LAKE    FAIR      30  28  92 SE5       30.37S
$$

NDZ022-023-025-028>030-036>039-047>053-201300-
SOUTHEAST NORTH DAKOTA

CITY           SKY/WX    TMP DP  RH WIND       PRES   REMARKS
FARGO          FAIR      35  30  82 SE5       30.42R
6HR MIN TEMP:  32; 6HR MAX TEMP:  39;

JAMESTOWN      CLEAR     30  27  88 SE3       30.36S
$$





USA.gov is the U.S. government's official web portal to all federal, state and local government web resources and services.